Location: Carbonear
(47.7333°N, 53.2500°W)
Time: 21:33:28
(UTC+00:00)

STRAND 1 - Pass Details

Date: 08 December 2022
Orbit: 768 x 779 km, 98.4° (Epoch: 01 February)

Event Time Altitude Azimuth Distance (km) Brightness Sun altitude
Exits shadow 22:50:53 25° 198° (SSW) 1,512 ? -30.9°
Drops below altitude 10° 22:52:56 10° 198° (SSW) 2,304 ? -31.2°
Sets 22:55:14 0° 198° (SSW) 3,228 ? -31.6°
